Showing default

GAOFEN 11-05, 60249

Orbit data source: Space-Track

GAOFEN 11-05, 60249 is a payload satellite owned by Yaogan Zongti (CN) in SSO that was launched on Fri, 19 Jul 2024 UTC via a CHANG ZHENG 4B launch vehicle from the Taiyaun Space Center, China (TSC). Payload-class satellites include a variety of spacecraft equipped with specific instruments for various scientific and technological missions. These include communications satellites like Starlink; space stations such as the ISS; scientific satellites like the Hubble; Earth observation satellites from companies like Planet Labs, Umbra, and HawkEye 360; GPS; miniature CubeSats for education and research; and military/defense satellites.

Loading next visibility...
Identifier
60249, 2024-130A
Orbit
SSO
Country
Flag of CNCN / PRC
Related business
Manufacturer
CAST/YWZB
Mission
Operational Defense Imaging
Bus & Motor
JB-16, Unknown motor
Mass
~3,000 kg wet, ~3,000 kg dry
Launch date (UTC)
2024-07-19 (2 years ago)
Launch vehicle
CHANG ZHENG 4B
Launch site
Taiyaun Space Center, China (TSC)
Object type
Payload
Rocket body
Debris
Shape & HBR
Box + 2 Pan, 4.0 m
Radar Cross Section
9.231 m², Large (>1 m²)

Expand to show TLE details & history
Last TLE update: 8 hours ago

TLE from 8 hours ago
0 GAOFEN 11-05
1 60249U 24130A   26127.26363917  .00004944  00000-0  20809-3 0  9999
2 60249  97.3997 206.1356 0004858 210.8595 149.2357 15.23824443 79233
Epoch: 2026-05-07T06:19Z
TLE epoch observation values (Epoch: 2026-05-07T06:19:38.424Z)
Latitude
-0.00005°
Longitude
-113.88678°
Altitude
500.283 km
Speed
7.613 km/s
True Right ascension
13h 44m 32s
True Declination
0° 00' 00"
Sunlit
Object was in full shadow at epoch
Visualization orbit readout
Latitude
Unknown
Longitude
Unknown
Altitude
Unknown
Speed
Unknown
Apparent Right ascension
Unknown
Apparent Declination
Unknown
Sunlit
N/A
Visualization observer readout
Local Sidereal Time
22:18:35
Azimuth
Unknown
Elevation
Unknown
Doppler factor
Unknown
Orbital elements
Apogee altitude
494.615 km
Perigee altitude
487.941 km
Semi-major axis
6,869.415 km
Eccentricity
0.00049
Inclination
97.3997°
RAAN
206.1356°
Arg. of periapsis
210.8595°
True anomaly
149.26416°
Mean anomaly
149.2357°
Eccentric anomaly
149.24993°
Mean motion
3.81209 °/min
Orbital period
94.44 mins
BSTAR
0.00020809
Loading maneuver chart data...
Computing Atmospheric mass density...
Loading historical data...
Loading historical data...
Loading historical data...
Loading historical data...
Loading historical data...
Loading historical data...
Loading historical data...
Other satellites on launch #130 in the year 2024 (2024-07-19 UTC)

Documentation

Showing up to 5 results
|